User: anonymous   Login
Location: Unspecified
(0.0000°N, 0.0000°E)
Time: 17:08:51
(UTC+00:00)
Language:

RAX-2 - Orbit

View from above orbital plane
View from above orbital plane
View from above satellite
View from above satellite

Ground track
Ground track

The orbit data is extracted from the following two-line orbital elements,

1 37853U 11061D   14331.20449363  .00012093  00000-0  79073-3 0  9734
2 37853 101.7030 078.8071 0208754 304.4076 114.5911 14.91894257166949
Epoch (UTC): 27 November 2014 04:54:28
Eccentricity: 0.0208754
inclination: 101.7030°
perigee height: 446 km
apogee height: 737 km
right ascension of ascending node: 78.8071°
argument of perigee: 304.4076°
revolutions per day: 14.91894257
mean anomaly at epoch: 114.5911°
orbit number at epoch: 16694

The dashed part of the orbit path shows where the satellite is in the earth's shadow,  

DLR